Regional Weather Roundup
Issued by NWS

Home | Current Version | Previous Version | Graphics & Text | Print | Product List | Glossary On
Versions: 1 2 3 4 5 6 7 8 9 10 11 12 13 14 15 16 17 18 19 20 21 22 23 24 25 26 27 28 29 30 31 32 33 34 35 36 37 38 39 40 41 42 43 44 45 46 47 48 49 50
000
ASUS43 KLMK 251810
RWRKY
KENTUCKY REGIONAL WEATHER ROUNDUP
NATIONAL WEATHER SERVICE LOUISVILLE KY
100 PM EST SAT FEB 25 2017

NOTE "FAIR" INDICATES FEW OR NO CLOUDS BELOW 12,000 FEET
WITH NO SIGNIFICANT WEATHER AND/OR OBSTRUCTIONS TO VISIBILITY.

KYZ001>023-026-027-061>063-070>075-251900-
WESTERN AND SOUTH CENTRAL KENTUCKY

CITY           SKY/WX    TMP DP  RH WIND       PRES   REMARKS
PADUCAH        SUNNY     40  18  41 W15       30.07S WCI  32
HENDERSON      CLOUDY    37  19  48 W14       30.05S WCI  29
OWENSBORO      CLOUDY    37  20  50 NW18      30.05R WCI  27
HOPKINSVILLE   MOSUNNY   39  19  43 NW9       30.05R WCI  33
BOWLING GREEN  CLOUDY    40  19  43 W15G22    30.04R WCI  32
GLASGOW        CLOUDY    40  24  53 W13G21    30.01S WCI  32
$$

KYZ024-025-028>034-038-045-046-053-251900-
NORTH CENTRAL KENTUCKY

CITY           SKY/WX    TMP DP  RH WIND       PRES   REMARKS
LOUISVILLE/SDF CLOUDY    35  19  52 W20       29.99R WCI  24
LOUISVILLE/LOU CLOUDY    35  19  52 W18G29    29.99R WCI  24
FORT KNOX      MIX PCPN  32  21  64 W16       29.98R WCI  21
$$

KYZ035>037-039>044-047>052-055>060-089>105-251900-
NORTHEAST KENTUCKY

CITY           SKY/WX    TMP DP  RH WIND       PRES   REMARKS
LEXINGTON      CLOUDY    35  21  56 W15G25    29.93R WCI  25
COVINGTON      CLOUDY    31  22  69 W18G29    29.89R WCI  19
FRANKFORT      CLOUDY    36  20  52 W16G24    29.93R WCI  26
$$

KYZ054-064>069-076>088-106>120-251900-
SOUTHEAST KENTUCKY

CITY           SKY/WX    TMP DP  RH WIND       PRES   REMARKS
JACKSON        PTSUNNY   41  28  60 W16G23    29.86R
LONDON         PTSUNNY   40  25  55 W17G24    29.92R WCI  31
SOMERSET       CLOUDY    41  25  52 W15G26    29.97S
MIDDLESBORO    PTSUNNY   50  33  52 W14       29.88R
MONTICELLO     MOCLDY    45  27  49 W23       29.97R
$$





USA.gov is the U.S. government's official web portal to all federal, state and local government web resources and services.